Terminal Aerodrome Forecast
Issued by NWS Kansas City/Pleasant Hill, MO

Home | Current Version | Previous Version | Text Only | Print | Product List | Glossary On
Versions: 1 2 3 4 5 6 7 8 9 10 11 12 13 14 15 16
000
FTUS43 KEAX 131700
TAFMCI
TAF
KMCI 131722Z 1318/1418 33007KT P6SM SCT030 OVC110
     FM140000 04005KT P6SM SCT100
     FM141700 30008KT P6SM VCSH BKN070=

USA.gov is the U.S. government's official web portal to all federal, state and local government web resources and services.